Year,Month,Day,Hour,Minute,Value (Times are PST for temperature in C)
2006,04,17,00,00,6.30
2006,04,17,00,01,6.30
2006,04,17,00,02,6.30
2006,04,17,00,03,6.40
2006,04,17,00,04,6.30
2006,04,17,00,05,6.30
2006,04,17,00,06,6.30
2006,04,17,00,07,6.30
2006,04,17,00,08,6.30
2006,04,17,00,09,6.30
2006,04,17,00,10,6.30
2006,04,17,00,11,6.30
2006,04,17,00,12,6.30
2006,04,17,00,13,6.20
2006,04,17,00,14,6.20
2006,04,17,00,15,6.20
2006,04,17,00,16,6.20
2006,04,17,00,17,6.20
2006,04,17,00,18,6.20
2006,04,17,00,19,6.20
2006,04,17,00,20,6.20
2006,04,17,00,21,6.10
2006,04,17,00,22,6.10
2006,04,17,00,23,6.10
2006,04,17,00,24,6.10
2006,04,17,00,25,6.10
2006,04,17,00,26,6.00
2006,04,17,00,27,5.90
2006,04,17,00,28,5.80
2006,04,17,00,29,5.80
2006,04,17,00,30,5.70
2006,04,17,00,31,5.70
2006,04,17,00,32,5.70
2006,04,17,00,33,5.60
2006,04,17,00,34,5.60
2006,04,17,00,35,5.50
2006,04,17,00,36,5.50
2006,04,17,00,37,5.40
2006,04,17,00,38,5.40
2006,04,17,00,39,5.30
2006,04,17,00,40,5.30
2006,04,17,00,41,5.30
2006,04,17,00,42,5.20
2006,04,17,00,43,5.20
2006,04,17,00,44,5.10
2006,04,17,00,45,5.10
2006,04,17,00,46,5.10
2006,04,17,00,47,5.10
2006,04,17,00,48,5.10
2006,04,17,00,49,4.90
2006,04,17,00,50,4.90
2006,04,17,00,51,4.90
2006,04,17,00,52,4.90
2006,04,17,00,53,4.90
2006,04,17,00,54,4.80
2006,04,17,00,55,4.80
2006,04,17,00,56,4.80
2006,04,17,00,57,4.70
2006,04,17,00,58,4.70
2006,04,17,00,59,4.70
2006,04,17,01,00,4.70
2006,04,17,01,01,4.70
2006,04,17,01,02,4.70
2006,04,17,01,03,4.60
2006,04,17,01,04,4.60
2006,04,17,01,05,4.60
2006,04,17,01,06,4.60
2006,04,17,01,07,4.60
2006,04,17,01,08,4.60
2006,04,17,01,09,4.60
2006,04,17,01,10,4.60
2006,04,17,01,11,4.60
2006,04,17,01,12,4.60
2006,04,17,01,13,4.60
2006,04,17,01,14,4.60
2006,04,17,01,15,4.60
2006,04,17,01,16,4.60
2006,04,17,01,17,4.60
2006,04,17,01,18,4.60
2006,04,17,01,19,4.50
2006,04,17,01,20,4.50
2006,04,17,01,21,4.50
2006,04,17,01,22,4.50
2006,04,17,01,23,4.50
2006,04,17,01,24,4.50
2006,04,17,01,25,4.50
2006,04,17,01,26,4.50
2006,04,17,01,27,4.50
2006,04,17,01,28,4.40
2006,04,17,01,29,4.40
2006,04,17,01,30,4.40
2006,04,17,01,31,4.40
2006,04,17,01,32,4.40
2006,04,17,01,33,4.40
2006,04,17,01,34,4.30
2006,04,17,01,35,4.30
2006,04,17,01,36,4.30
2006,04,17,01,37,4.30
2006,04,17,01,38,4.30
2006,04,17,01,39,4.30
2006,04,17,01,40,4.30
2006,04,17,01,41,4.30
2006,04,17,01,42,4.20
2006,04,17,01,43,4.20
2006,04,17,01,44,4.20
2006,04,17,01,45,4.20
2006,04,17,01,46,4.20
2006,04,17,01,47,4.20
2006,04,17,01,48,4.20
2006,04,17,01,49,4.20
2006,04,17,01,50,4.20
2006,04,17,01,51,4.20
2006,04,17,01,52,4.20
2006,04,17,01,53,4.20
2006,04,17,01,54,4.20
2006,04,17,01,55,4.20
2006,04,17,01,56,4.20
2006,04,17,01,57,4.20
2006,04,17,01,58,4.20
2006,04,17,01,59,4.20
2006,04,17,02,00,4.20
2006,04,17,02,01,4.20
2006,04,17,02,02,4.20
2006,04,17,02,03,4.20
2006,04,17,02,04,4.20
2006,04,17,02,05,4.20
2006,04,17,02,06,4.20
2006,04,17,02,07,4.20
2006,04,17,02,08,4.20
2006,04,17,02,09,4.20
2006,04,17,02,10,4.20
2006,04,17,02,11,4.20
2006,04,17,02,12,4.20
2006,04,17,02,13,4.10
2006,04,17,02,14,4.10
2006,04,17,02,15,4.10
2006,04,17,02,16,4.10
2006,04,17,02,17,4.10
2006,04,17,02,18,4.10
2006,04,17,02,19,4.10
2006,04,17,02,20,4.10
2006,04,17,02,21,4.10
2006,04,17,02,22,4.10
2006,04,17,02,23,4.10
2006,04,17,02,24,4.10
2006,04,17,02,25,4.00
2006,04,17,02,26,4.00
2006,04,17,02,27,4.00
2006,04,17,02,28,4.00
2006,04,17,02,29,4.00
2006,04,17,02,30,4.00
2006,04,17,02,31,4.00
2006,04,17,02,32,4.00
2006,04,17,02,33,4.00
2006,04,17,02,34,4.00
2006,04,17,02,35,4.00
2006,04,17,02,36,4.00
2006,04,17,02,37,4.00
2006,04,17,02,38,4.00
2006,04,17,02,39,4.00
2006,04,17,02,40,4.00
2006,04,17,02,41,4.00
2006,04,17,02,42,4.00
2006,04,17,02,43,4.00
2006,04,17,02,44,4.00
2006,04,17,02,45,4.00
2006,04,17,02,46,4.00
2006,04,17,02,47,4.00
2006,04,17,02,48,4.00
2006,04,17,02,49,4.00
2006,04,17,02,50,3.90
2006,04,17,02,51,3.90
2006,04,17,02,52,3.90
2006,04,17,02,53,3.90
2006,04,17,02,54,3.90
2006,04,17,02,55,3.90
2006,04,17,02,56,3.90
2006,04,17,02,57,3.90
2006,04,17,02,58,3.90
2006,04,17,02,59,3.90
2006,04,17,03,00,3.90
2006,04,17,03,01,3.90
2006,04,17,03,02,3.90
2006,04,17,03,03,3.90
2006,04,17,03,04,3.90
2006,04,17,03,05,4.00
2006,04,17,03,06,4.00
2006,04,17,03,07,4.00
2006,04,17,03,08,4.00
2006,04,17,03,09,4.00
2006,04,17,03,10,4.00
2006,04,17,03,11,4.00
2006,04,17,03,12,4.00
2006,04,17,03,13,4.00
2006,04,17,03,14,3.90
2006,04,17,03,15,3.90
2006,04,17,03,16,3.90
2006,04,17,03,17,3.90
2006,04,17,03,18,3.80
2006,04,17,03,19,3.80
2006,04,17,03,20,3.80
2006,04,17,03,21,3.80
2006,04,17,03,22,3.70
2006,04,17,03,23,3.70
2006,04,17,03,24,3.70
2006,04,17,03,25,3.60
2006,04,17,03,26,3.60
2006,04,17,03,27,3.50
2006,04,17,03,28,3.50
2006,04,17,03,29,3.50
2006,04,17,03,30,3.50
2006,04,17,03,31,3.40
2006,04,17,03,32,3.40
2006,04,17,03,33,3.40
2006,04,17,03,34,3.40
2006,04,17,03,35,3.30
2006,04,17,03,36,3.30
2006,04,17,03,37,3.30
2006,04,17,03,38,3.30
2006,04,17,03,39,3.30
2006,04,17,03,40,3.30
2006,04,17,03,41,3.30
2006,04,17,03,42,3.30
2006,04,17,03,43,3.30
2006,04,17,03,44,3.20
2006,04,17,03,45,3.20
2006,04,17,03,46,3.20
2006,04,17,03,47,3.10
2006,04,17,03,48,3.10
2006,04,17,03,49,3.10
2006,04,17,03,50,3.10
2006,04,17,03,51,3.10
2006,04,17,03,52,3.10
2006,04,17,03,53,3.10
2006,04,17,03,54,3.10
2006,04,17,03,55,3.10
2006,04,17,03,56,3.10
2006,04,17,03,57,3.10
2006,04,17,03,58,3.10
2006,04,17,03,59,3.10
2006,04,17,04,00,3.00
2006,04,17,04,01,2.90
2006,04,17,04,02,2.90
2006,04,17,04,03,2.90
2006,04,17,04,04,2.90
2006,04,17,04,05,2.90
2006,04,17,04,06,2.90
2006,04,17,04,07,2.90
2006,04,17,04,08,2.90
2006,04,17,04,09,2.90
2006,04,17,04,10,2.90
2006,04,17,04,11,2.90
2006,04,17,04,12,2.80
2006,04,17,04,13,2.80
2006,04,17,04,14,2.80
2006,04,17,04,15,2.80
2006,04,17,04,16,2.80
2006,04,17,04,17,2.80
2006,04,17,04,18,2.80
2006,04,17,04,19,2.80
2006,04,17,04,20,2.80
2006,04,17,04,21,2.80
2006,04,17,04,22,2.80
2006,04,17,04,23,2.80
2006,04,17,04,24,2.80
2006,04,17,04,25,2.80
2006,04,17,04,26,2.80
2006,04,17,04,27,2.80
2006,04,17,04,28,2.80
2006,04,17,04,29,2.80
2006,04,17,04,30,2.80
2006,04,17,04,31,2.90
2006,04,17,04,32,2.90
2006,04,17,04,33,2.90
2006,04,17,04,34,2.90
2006,04,17,04,35,2.90
2006,04,17,04,36,3.00
2006,04,17,04,37,3.10
2006,04,17,04,38,3.10
2006,04,17,04,39,3.10
2006,04,17,04,40,3.10
2006,04,17,04,41,3.10
2006,04,17,04,42,3.10
2006,04,17,04,43,3.10
2006,04,17,04,44,3.10
2006,04,17,04,45,3.10
2006,04,17,04,46,3.10
2006,04,17,04,47,3.10
2006,04,17,04,48,3.10
2006,04,17,04,49,3.10
2006,04,17,04,50,3.10
2006,04,17,04,51,3.10
2006,04,17,04,52,3.10
2006,04,17,04,53,3.10
2006,04,17,04,54,3.10
2006,04,17,04,55,3.10
2006,04,17,04,56,3.10
2006,04,17,04,57,3.10
2006,04,17,04,58,3.10
2006,04,17,04,59,3.10
2006,04,17,05,00,3.10
2006,04,17,05,01,3.10
2006,04,17,05,02,3.10
2006,04,17,05,03,3.10
2006,04,17,05,04,3.10
2006,04,17,05,05,3.20
2006,04,17,05,06,3.20
2006,04,17,05,07,3.20
2006,04,17,05,08,3.20
2006,04,17,05,09,3.20
2006,04,17,05,10,3.20
2006,04,17,05,11,3.20
2006,04,17,05,12,3.20
2006,04,17,05,13,3.20
2006,04,17,05,14,3.20
2006,04,17,05,15,3.20
2006,04,17,05,16,3.20
2006,04,17,05,17,3.20
2006,04,17,05,18,3.20
2006,04,17,05,19,3.20
2006,04,17,05,20,3.20
2006,04,17,05,21,3.20
2006,04,17,05,22,3.20
2006,04,17,05,23,3.30
2006,04,17,05,24,3.30
2006,04,17,05,25,3.30
2006,04,17,05,26,3.30
2006,04,17,05,27,3.30
2006,04,17,05,28,3.30
2006,04,17,05,29,3.30
2006,04,17,05,30,3.30
2006,04,17,05,31,3.30
2006,04,17,05,32,3.30
2006,04,17,05,33,3.30
2006,04,17,05,34,3.30
2006,04,17,05,35,3.30
2006,04,17,05,36,3.30
2006,04,17,05,37,3.30
2006,04,17,05,38,3.30
2006,04,17,05,39,3.30
2006,04,17,05,40,3.30
2006,04,17,05,41,3.30
2006,04,17,05,42,3.20
2006,04,17,05,43,3.20
2006,04,17,05,44,3.20
2006,04,17,05,45,3.20
2006,04,17,05,46,3.20
2006,04,17,05,47,3.20
2006,04,17,05,48,3.20
2006,04,17,05,49,3.20
2006,04,17,05,50,3.10
2006,04,17,05,51,3.10
2006,04,17,05,52,3.10
2006,04,17,05,53,3.10
2006,04,17,05,54,3.10
2006,04,17,05,55,3.20
2006,04,17,05,56,3.20
2006,04,17,05,57,3.20
2006,04,17,05,58,3.20
2006,04,17,05,59,3.20
2006,04,17,06,00,3.30
2006,04,17,06,01,3.30
2006,04,17,06,02,3.30
2006,04,17,06,03,3.30
2006,04,17,06,04,3.30
2006,04,17,06,05,3.30
2006,04,17,06,06,3.30
2006,04,17,06,07,3.30
2006,04,17,06,08,3.30
2006,04,17,06,09,3.30
2006,04,17,06,10,3.30
2006,04,17,06,11,3.40
2006,04,17,06,12,3.40
2006,04,17,06,13,3.40
2006,04,17,06,14,3.40
2006,04,17,06,15,3.40
2006,04,17,06,16,3.50
2006,04,17,06,17,3.50
2006,04,17,06,18,3.50
2006,04,17,06,19,3.50
2006,04,17,06,20,3.50
2006,04,17,06,21,3.50
2006,04,17,06,22,3.50
2006,04,17,06,23,3.50
2006,04,17,06,24,3.50
2006,04,17,06,25,3.60
2006,04,17,06,26,3.60
2006,04,17,06,27,3.60
2006,04,17,06,28,3.60
2006,04,17,06,29,3.60
2006,04,17,06,30,3.60
2006,04,17,06,31,3.60
2006,04,17,06,32,3.60
2006,04,17,06,33,3.60
2006,04,17,06,34,3.60
2006,04,17,06,35,3.60
2006,04,17,06,36,3.60
2006,04,17,06,37,3.60
2006,04,17,06,38,3.60
2006,04,17,06,39,3.60
2006,04,17,06,40,3.60
2006,04,17,06,41,3.60
2006,04,17,06,42,3.60
2006,04,17,06,43,3.60
2006,04,17,06,44,3.60
2006,04,17,06,45,3.60
2006,04,17,06,46,3.60
2006,04,17,06,47,3.60
2006,04,17,06,48,3.60
2006,04,17,06,49,3.60
2006,04,17,06,50,3.60
2006,04,17,06,51,3.60
2006,04,17,06,52,3.60
2006,04,17,06,53,3.70
2006,04,17,06,54,3.70
2006,04,17,06,55,3.70
2006,04,17,06,56,3.70
2006,04,17,06,57,3.80
2006,04,17,06,58,3.80
2006,04,17,06,59,3.80
2006,04,17,07,00,3.80
2006,04,17,07,01,3.80
2006,04,17,07,02,3.90
2006,04,17,07,03,3.90
2006,04,17,07,04,3.90
2006,04,17,07,05,4.00
2006,04,17,07,06,4.00
2006,04,17,07,07,4.00
2006,04,17,07,08,4.00
2006,04,17,07,09,4.10
2006,04,17,07,10,4.10
2006,04,17,07,11,4.20
2006,04,17,07,12,4.20
2006,04,17,07,13,4.20
2006,04,17,07,14,4.20
2006,04,17,07,15,4.20
2006,04,17,07,16,4.20
2006,04,17,07,17,4.30
2006,04,17,07,18,4.30
2006,04,17,07,19,4.30
2006,04,17,07,20,4.40
2006,04,17,07,21,4.40
2006,04,17,07,22,4.50
2006,04,17,07,23,4.50
2006,04,17,07,24,4.60
2006,04,17,07,25,4.60
2006,04,17,07,26,4.60
2006,04,17,07,27,4.60
2006,04,17,07,28,4.60
2006,04,17,07,29,4.60
2006,04,17,07,30,4.60
2006,04,17,07,31,4.70
2006,04,17,07,32,5.10
2006,04,17,07,33,5.10
2006,04,17,07,34,5.10
2006,04,17,07,35,5.20
2006,04,17,07,36,5.20
2006,04,17,07,37,5.20
2006,04,17,07,38,5.20
2006,04,17,07,39,5.20
2006,04,17,07,40,5.20
2006,04,17,07,41,5.30
2006,04,17,07,42,5.30
2006,04,17,07,43,5.30
2006,04,17,07,44,5.40
2006,04,17,07,45,5.40
2006,04,17,07,46,5.50
2006,04,17,07,47,5.50
2006,04,17,07,48,5.50
2006,04,17,07,49,5.60
2006,04,17,07,50,5.60
2006,04,17,07,51,5.70
2006,04,17,07,52,5.80
2006,04,17,07,53,5.80
2006,04,17,07,54,5.90
2006,04,17,07,55,5.90
2006,04,17,07,56,6.00
2006,04,17,07,57,6.00
2006,04,17,07,58,6.00
2006,04,17,07,59,6.10
2006,04,17,08,00,6.10
2006,04,17,08,01,6.20
2006,04,17,08,02,6.20
2006,04,17,08,03,6.20
2006,04,17,08,04,6.30
2006,04,17,08,05,6.40
2006,04,17,08,06,6.50
2006,04,17,08,07,6.60
2006,04,17,08,08,6.60
2006,04,17,08,09,6.60
2006,04,17,08,10,6.60
2006,04,17,08,11,6.70
2006,04,17,08,12,6.80
2006,04,17,08,13,6.80
2006,04,17,08,14,6.90
2006,04,17,08,15,7.00
2006,04,17,08,16,7.00
2006,04,17,08,17,7.00
2006,04,17,08,18,7.00
2006,04,17,08,19,7.10
2006,04,17,08,20,7.20
2006,04,17,08,21,7.20
2006,04,17,08,22,7.20
2006,04,17,08,23,7.30
2006,04,17,08,24,7.30
2006,04,17,08,25,7.30
2006,04,17,08,26,7.30
2006,04,17,08,27,7.30
2006,04,17,08,28,7.40
2006,04,17,08,29,7.40
2006,04,17,08,30,7.40
2006,04,17,08,31,7.50
2006,04,17,08,32,7.50
2006,04,17,08,33,7.50
2006,04,17,08,34,7.50
2006,04,17,08,35,7.50
2006,04,17,08,36,7.60
2006,04,17,08,37,7.60
2006,04,17,08,38,7.60
2006,04,17,08,39,7.60
2006,04,17,08,40,7.60
2006,04,17,08,41,7.60
2006,04,17,08,42,7.80
2006,04,17,08,43,7.90
2006,04,17,08,44,8.00
2006,04,17,08,45,8.00
2006,04,17,08,46,7.90
2006,04,17,08,47,8.00
2006,04,17,08,48,8.00
2006,04,17,08,49,8.00
2006,04,17,08,50,8.10
2006,04,17,08,51,8.20
2006,04,17,08,52,8.20
2006,04,17,08,53,8.20
2006,04,17,08,54,8.20
2006,04,17,08,55,8.20
2006,04,17,08,56,8.20
2006,04,17,08,57,8.20
2006,04,17,08,58,8.20
2006,04,17,08,59,8.20
2006,04,17,09,00,8.20
2006,04,17,09,01,8.20
2006,04,17,09,02,8.10
2006,04,17,09,03,8.00
2006,04,17,09,04,8.00
2006,04,17,09,05,8.00
2006,04,17,09,06,8.00
2006,04,17,09,07,8.00
2006,04,17,09,08,8.00
2006,04,17,09,09,8.00
2006,04,17,09,10,8.00
2006,04,17,09,11,8.00
2006,04,17,09,12,8.00
2006,04,17,09,13,8.00
2006,04,17,09,14,8.00
2006,04,17,09,15,8.10
2006,04,17,09,16,8.10
2006,04,17,09,17,8.10
2006,04,17,09,18,8.10
2006,04,17,09,19,8.10
2006,04,17,09,20,8.20
2006,04,17,09,21,8.20
2006,04,17,09,22,8.20
2006,04,17,09,23,8.20
2006,04,17,09,24,8.20
2006,04,17,09,25,8.20
2006,04,17,09,26,8.20
2006,04,17,09,27,8.20
2006,04,17,09,28,8.20
2006,04,17,09,29,8.20
2006,04,17,09,30,8.20
2006,04,17,09,31,8.20
2006,04,17,09,32,8.30
2006,04,17,09,33,8.30
2006,04,17,09,34,8.30
2006,04,17,09,35,8.30
2006,04,17,09,36,8.30
2006,04,17,09,37,8.30
2006,04,17,09,38,8.30
2006,04,17,09,39,8.30
2006,04,17,09,40,8.20
2006,04,17,09,41,8.20
2006,04,17,09,42,8.20
2006,04,17,09,43,8.30
2006,04,17,09,44,8.30
2006,04,17,09,45,8.30
2006,04,17,09,46,8.30
2006,04,17,09,47,8.30
2006,04,17,09,48,8.40
2006,04,17,09,49,8.40
2006,04,17,09,50,8.40
2006,04,17,09,51,8.40
2006,04,17,09,52,8.40
2006,04,17,09,53,8.40
2006,04,17,09,54,8.40
2006,04,17,09,55,8.40
2006,04,17,09,56,8.40
2006,04,17,09,57,8.40
2006,04,17,09,58,8.60
2006,04,17,09,59,8.60
2006,04,17,10,00,8.60
2006,04,17,10,01,8.60
2006,04,17,10,02,8.50
2006,04,17,10,03,8.50
2006,04,17,10,04,8.50
2006,04,17,10,05,8.60
2006,04,17,10,06,8.60
2006,04,17,10,07,8.70
2006,04,17,10,08,8.60
2006,04,17,10,09,8.50
2006,04,17,10,10,8.50
2006,04,17,10,11,8.60
2006,04,17,10,12,8.60
2006,04,17,10,13,8.70
2006,04,17,10,14,8.70
2006,04,17,10,15,8.80
2006,04,17,10,16,8.80
2006,04,17,10,17,8.80
2006,04,17,10,18,8.90
2006,04,17,10,19,8.90
2006,04,17,10,20,9.00
2006,04,17,10,21,9.10
2006,04,17,10,22,9.10
2006,04,17,10,23,9.20
2006,04,17,10,24,9.20
2006,04,17,10,25,9.20
2006,04,17,10,26,9.20
2006,04,17,10,27,9.20
2006,04,17,10,28,9.20
2006,04,17,10,29,9.20
2006,04,17,10,30,9.20
2006,04,17,10,31,9.20
2006,04,17,10,32,9.20
2006,04,17,10,33,9.20
2006,04,17,10,34,9.20
2006,04,17,10,35,9.40
2006,04,17,10,36,9.40
2006,04,17,10,37,9.30
2006,04,17,10,38,9.30
2006,04,17,10,39,9.40
2006,04,17,10,40,9.40
2006,04,17,10,41,9.40
2006,04,17,10,42,9.40
2006,04,17,10,43,9.30
2006,04,17,10,44,9.20
2006,04,17,10,45,9.10
2006,04,17,10,46,9.10
2006,04,17,10,47,9.10
2006,04,17,10,48,9.10
2006,04,17,10,49,9.10
2006,04,17,10,50,9.20
2006,04,17,10,51,9.20
2006,04,17,10,52,9.20
2006,04,17,10,53,9.20
2006,04,17,10,54,9.20
2006,04,17,10,55,9.20
2006,04,17,10,56,9.20
2006,04,17,10,57,9.20
2006,04,17,10,58,9.20
2006,04,17,10,59,9.00
2006,04,17,11,00,8.90
2006,04,17,11,01,8.90
2006,04,17,11,02,8.90
2006,04,17,11,03,8.90
2006,04,17,11,04,8.90
2006,04,17,11,05,8.90
2006,04,17,11,06,8.90
2006,04,17,11,07,8.80
2006,04,17,11,08,8.80
2006,04,17,11,09,8.80
2006,04,17,11,10,8.80
2006,04,17,11,11,8.90
2006,04,17,11,12,8.90
2006,04,17,11,13,8.90
2006,04,17,11,14,8.90
2006,04,17,11,15,8.80
2006,04,17,11,16,8.80
2006,04,17,11,17,8.80
2006,04,17,11,18,8.80
2006,04,17,11,19,8.80
2006,04,17,11,20,8.80
2006,04,17,11,21,8.80
2006,04,17,11,22,8.80
2006,04,17,11,23,8.80
2006,04,17,11,24,8.80
2006,04,17,11,25,8.80
2006,04,17,11,26,8.80
2006,04,17,11,27,8.80
2006,04,17,11,28,8.80
2006,04,17,11,29,8.80
2006,04,17,11,30,9.30
2006,04,17,11,31,9.40
2006,04,17,11,32,9.50
2006,04,17,11,33,9.70
2006,04,17,11,34,9.70
2006,04,17,11,35,9.80
2006,04,17,11,36,9.80
2006,04,17,11,37,9.80
2006,04,17,11,38,9.80
2006,04,17,11,39,9.80
2006,04,17,11,40,9.90
2006,04,17,11,41,10.10
2006,04,17,11,42,10.10
2006,04,17,11,43,10.00
2006,04,17,11,44,9.80
2006,04,17,11,45,9.70
2006,04,17,11,46,9.70
2006,04,17,11,47,9.70
2006,04,17,11,48,9.70
2006,04,17,11,49,9.70
2006,04,17,11,50,9.70
2006,04,17,11,51,9.50
2006,04,17,11,52,9.50
2006,04,17,11,53,9.40
2006,04,17,11,54,9.40
2006,04,17,11,55,9.40
2006,04,17,11,56,9.40
2006,04,17,11,57,9.40
2006,04,17,11,58,9.60
2006,04,17,11,59,9.70
2006,04,17,12,00,9.70
2006,04,17,12,01,9.80
2006,04,17,12,02,9.90
2006,04,17,12,03,9.90
2006,04,17,12,04,9.90
2006,04,17,12,05,9.80
2006,04,17,12,06,9.80
2006,04,17,12,07,9.70
2006,04,17,12,08,9.70
2006,04,17,12,09,9.80
2006,04,17,12,10,9.90
2006,04,17,12,11,9.90
2006,04,17,12,12,10.00
2006,04,17,12,13,10.00
2006,04,17,12,14,10.10
2006,04,17,12,15,10.10
2006,04,17,12,16,10.20
2006,04,17,12,17,10.30
2006,04,17,12,18,10.30
2006,04,17,12,19,10.20
2006,04,17,12,20,10.20
2006,04,17,12,21,10.10
2006,04,17,12,22,10.00
2006,04,17,12,23,9.90
2006,04,17,12,24,9.90
2006,04,17,12,25,9.90
2006,04,17,12,26,9.90
2006,04,17,12,27,10.10
2006,04,17,12,28,10.10
2006,04,17,12,29,10.20
2006,04,17,12,30,10.10
2006,04,17,12,31,10.10
2006,04,17,12,32,10.20
2006,04,17,12,33,10.20
2006,04,17,12,34,10.20
2006,04,17,12,35,10.30
2006,04,17,12,36,10.30
2006,04,17,12,37,10.40
2006,04,17,12,38,10.40
2006,04,17,12,39,10.30
2006,04,17,12,40,10.30
2006,04,17,12,41,10.30
2006,04,17,12,42,10.30
2006,04,17,12,43,10.30
2006,04,17,12,44,10.30
2006,04,17,12,45,10.40
2006,04,17,12,46,10.40
2006,04,17,12,47,10.40
2006,04,17,12,48,10.50
2006,04,17,12,49,10.60
2006,04,17,12,50,10.60
2006,04,17,12,51,10.50
2006,04,17,12,52,10.40
2006,04,17,12,53,10.40
2006,04,17,12,54,10.50
2006,04,17,12,55,10.60
2006,04,17,12,56,10.60
2006,04,17,12,57,10.60
2006,04,17,12,58,10.60
2006,04,17,12,59,10.60
2006,04,17,13,00,10.60
2006,04,17,13,01,10.60
2006,04,17,13,02,10.60
2006,04,17,13,03,10.60
2006,04,17,13,04,10.60
2006,04,17,13,05,10.90
2006,04,17,13,06,10.90
2006,04,17,13,07,11.00
2006,04,17,13,08,11.10
2006,04,17,13,09,11.20
2006,04,17,13,10,11.30
2006,04,17,13,11,11.40
2006,04,17,13,12,11.50
2006,04,17,13,13,11.50
2006,04,17,13,14,11.60
2006,04,17,13,15,11.60
2006,04,17,13,16,11.70
2006,04,17,13,17,11.70
2006,04,17,13,18,11.60
2006,04,17,13,19,11.60
2006,04,17,13,20,11.60
2006,04,17,13,21,11.60
2006,04,17,13,22,11.60
2006,04,17,13,23,11.60
2006,04,17,13,24,11.60
2006,04,17,13,25,11.60
2006,04,17,13,26,11.40
2006,04,17,13,27,11.40
2006,04,17,13,28,11.60
2006,04,17,13,29,11.60
2006,04,17,13,30,11.60
2006,04,17,13,31,11.80
2006,04,17,13,32,11.80
2006,04,17,13,33,11.80
2006,04,17,13,34,11.60
2006,04,17,13,35,11.40
2006,04,17,13,36,11.40
2006,04,17,13,37,11.40
2006,04,17,13,38,11.50
2006,04,17,13,39,11.50
2006,04,17,13,40,11.40
2006,04,17,13,41,11.50
2006,04,17,13,42,11.40
2006,04,17,13,43,11.40
2006,04,17,13,44,11.40
2006,04,17,13,45,11.40
2006,04,17,13,46,11.40
2006,04,17,13,47,11.50
2006,04,17,13,48,11.60
2006,04,17,13,49,11.60
2006,04,17,13,50,11.60
2006,04,17,13,51,11.60
2006,04,17,13,52,11.60
2006,04,17,13,53,11.60
2006,04,17,13,54,11.60
2006,04,17,13,55,11.70
2006,04,17,13,56,11.70
2006,04,17,13,57,11.80
2006,04,17,13,58,11.80
2006,04,17,13,59,11.80
2006,04,17,14,00,11.80
2006,04,17,14,01,11.80
2006,04,17,14,02,11.80
2006,04,17,14,03,11.80
2006,04,17,14,04,12.10
2006,04,17,14,05,12.30
2006,04,17,14,06,12.20
2006,04,17,14,07,12.00
2006,04,17,14,08,12.00
2006,04,17,14,09,11.90
2006,04,17,14,10,11.90
2006,04,17,14,11,11.90
2006,04,17,14,12,12.00
2006,04,17,14,13,12.10
2006,04,17,14,14,12.10
2006,04,17,14,15,12.20
2006,04,17,14,16,12.30
2006,04,17,14,17,12.20
2006,04,17,14,18,12.20
2006,04,17,14,19,12.00
2006,04,17,14,20,12.00
2006,04,17,14,21,12.00
2006,04,17,14,22,12.10
2006,04,17,14,23,12.00
2006,04,17,14,24,12.00
2006,04,17,14,25,12.00
2006,04,17,14,26,12.00
2006,04,17,14,27,12.30
2006,04,17,14,28,12.30
2006,04,17,14,29,12.20
2006,04,17,14,30,12.30
2006,04,17,14,31,12.30
2006,04,17,14,32,12.30
2006,04,17,14,33,12.30
2006,04,17,14,34,12.40
2006,04,17,14,35,12.60
2006,04,17,14,36,12.70
2006,04,17,14,37,12.80
2006,04,17,14,38,12.80
2006,04,17,14,39,12.70
2006,04,17,14,40,12.80
2006,04,17,14,41,12.90
2006,04,17,14,42,12.90
2006,04,17,14,43,13.00
2006,04,17,14,44,13.10
2006,04,17,14,45,13.20
2006,04,17,14,46,13.20
2006,04,17,14,47,13.10
2006,04,17,14,48,13.00
2006,04,17,14,49,13.00
2006,04,17,14,50,13.00
2006,04,17,14,51,13.10
2006,04,17,14,52,13.10
2006,04,17,14,53,12.90
2006,04,17,14,54,12.90
2006,04,17,14,55,13.00
2006,04,17,14,56,13.10
2006,04,17,14,57,13.10
2006,04,17,14,58,13.10
2006,04,17,14,59,13.10
2006,04,17,15,00,13.20
2006,04,17,15,01,13.30
2006,04,17,15,02,13.40
2006,04,17,15,03,13.40
2006,04,17,15,04,13.40
2006,04,17,15,05,13.30
2006,04,17,15,06,13.00
2006,04,17,15,07,12.80
2006,04,17,15,08,12.70
2006,04,17,15,09,12.60
2006,04,17,15,10,12.70
2006,04,17,15,11,12.70
2006,04,17,15,12,12.70
2006,04,17,15,13,12.60
2006,04,17,15,14,12.40
2006,04,17,15,15,12.40
2006,04,17,15,16,12.40
2006,04,17,15,17,12.50
2006,04,17,15,18,12.50
2006,04,17,15,19,12.60
2006,04,17,15,20,12.60
2006,04,17,15,21,12.60
2006,04,17,15,22,12.60
2006,04,17,15,23,12.60
2006,04,17,15,24,12.60
2006,04,17,15,25,12.60
2006,04,17,15,26,12.50
2006,04,17,15,27,12.30
2006,04,17,15,28,12.20
2006,04,17,15,29,12.10
2006,04,17,15,30,12.00
2006,04,17,15,31,11.90
2006,04,17,15,32,11.80
2006,04,17,15,33,11.80
2006,04,17,15,34,11.70
2006,04,17,15,35,11.70
2006,04,17,15,36,11.70
2006,04,17,15,37,11.60
2006,04,17,15,38,11.60
2006,04,17,15,39,11.70
2006,04,17,15,40,11.80
2006,04,17,15,41,11.80
2006,04,17,15,42,11.90
2006,04,17,15,43,12.00
2006,04,17,15,44,12.20
2006,04,17,15,45,12.10
2006,04,17,15,46,12.10
2006,04,17,15,47,12.20
2006,04,17,15,48,12.30
2006,04,17,15,49,12.30
2006,04,17,15,50,12.30
2006,04,17,15,51,12.30
2006,04,17,15,52,12.40
2006,04,17,15,53,12.40
2006,04,17,15,54,12.50
2006,04,17,15,55,12.50
2006,04,17,15,56,12.60
2006,04,17,15,57,12.70
2006,04,17,15,58,12.80
2006,04,17,15,59,12.80
2006,04,17,16,00,12.80
2006,04,17,16,01,12.90
2006,04,17,16,02,12.90
2006,04,17,16,03,12.90
2006,04,17,16,04,12.80
2006,04,17,16,05,12.80
2006,04,17,16,06,12.90
2006,04,17,16,07,12.90
2006,04,17,16,08,13.00
2006,04,17,16,09,13.00
2006,04,17,16,10,12.90
2006,04,17,16,11,12.80
2006,04,17,16,12,12.90
2006,04,17,16,13,13.00
2006,04,17,16,14,13.00
2006,04,17,16,15,13.00
2006,04,17,16,16,12.80
2006,04,17,16,17,12.80
2006,04,17,16,18,12.80
2006,04,17,16,19,12.80
2006,04,17,16,20,12.80
2006,04,17,16,21,12.80
2006,04,17,16,22,12.80
2006,04,17,16,23,12.80
2006,04,17,16,24,12.80
2006,04,17,16,25,12.80
2006,04,17,16,26,12.80
2006,04,17,16,27,12.80
2006,04,17,16,59,11.30
2006,04,17,17,00,11.30
2006,04,17,17,01,11.40
2006,04,17,17,02,11.40
2006,04,17,17,03,11.60
2006,04,17,17,04,11.60
2006,04,17,17,05,11.60
2006,04,17,17,06,11.60
2006,04,17,17,07,11.60
2006,04,17,17,08,11.70
2006,04,17,17,09,11.80
2006,04,17,17,10,11.80
2006,04,17,17,11,11.80
2006,04,17,17,12,11.80
2006,04,17,17,13,11.80
2006,04,17,17,14,11.90
2006,04,17,17,15,11.90
2006,04,17,17,16,12.00
2006,04,17,17,17,12.00
2006,04,17,17,18,12.00
2006,04,17,17,19,12.00
2006,04,17,17,20,12.00
2006,04,17,17,21,12.00
2006,04,17,17,22,12.00
2006,04,17,17,23,12.00
2006,04,17,17,24,12.00
2006,04,17,17,25,12.00
2006,04,17,17,26,12.10
2006,04,17,17,27,12.10
2006,04,17,17,28,12.00
2006,04,17,17,29,12.00
2006,04,17,17,30,12.00
2006,04,17,17,31,12.00
2006,04,17,17,32,12.00
2006,04,17,17,33,12.10
2006,04,17,17,34,12.10
2006,04,17,17,35,12.10
2006,04,17,17,36,12.20
2006,04,17,17,37,12.20
2006,04,17,17,38,12.10
2006,04,17,17,39,12.10
2006,04,17,17,40,12.10
2006,04,17,17,41,12.20
2006,04,17,17,42,12.30
2006,04,17,17,43,12.30
2006,04,17,17,44,12.40
2006,04,17,17,45,12.50
2006,04,17,17,46,12.50
2006,04,17,17,47,12.60
2006,04,17,17,48,12.70
2006,04,17,17,49,12.80
2006,04,17,17,50,12.80
2006,04,17,17,51,12.80
2006,04,17,17,52,12.90
2006,04,17,17,53,12.90
2006,04,17,17,54,12.90
2006,04,17,17,55,12.90
2006,04,17,17,56,13.00
2006,04,17,17,57,13.00
2006,04,17,17,58,13.00
2006,04,17,17,59,12.90
2006,04,17,18,00,12.90
2006,04,17,18,01,12.90
2006,04,17,18,02,12.90
2006,04,17,18,03,12.90
2006,04,17,18,04,12.80
2006,04,17,18,05,12.80
2006,04,17,18,06,12.80
2006,04,17,18,07,12.70
2006,04,17,18,08,12.70
2006,04,17,18,09,12.70
2006,04,17,18,10,12.60
2006,04,17,18,11,12.60
2006,04,17,18,12,12.50
2006,04,17,18,13,12.50
2006,04,17,18,14,12.50
2006,04,17,18,15,12.40
2006,04,17,18,16,12.40
2006,04,17,18,17,12.40
2006,04,17,18,18,12.30
2006,04,17,18,19,12.30
2006,04,17,18,20,12.20
2006,04,17,18,21,12.20
2006,04,17,18,22,12.10